Weather History for Troy, MI

Change the Weather History Date:

Saturday, January 19, 2013

  Actual Average (KDET) Record (KDET)
Temperature  
Mean Temperature 43 °F -  
Max Temperature 49 °F 32 °F 56 °F (1949)
Min Temperature 37 °F 19 °F 1 °F (1997)
Degree Days  
Heating Degree Days 22    
Moisture  
Dew Point 28 °F    
Average Humidity 55    
Maximum Humidity 63    
Minimum Humidity 47    
Precipitation  
Precipitation 0.00 in - - ()
Sea Level Pressure  
Sea Level Pressure 29.83 in    
Wind  
Wind Speed 15 mph (SW)    
Max Wind Speed 22 mph    
Max Gust Speed 33 mph    
Visibility 10 miles    
Events      
Averages and records for this station are not official NWS values.
T = Trace of Precipitation, MM = Missing Value Source: NWS Daily Summary

Daily Weather History Graph

Daily Weather History Graph

Search for Another Location

Airport:

Trip Planner

Search our weather history database for the weather conditions in past years. The results will help you decide how hot, cold, wet, or windy it might be!

Date:

Astronomy

Jan. 19, 2013 Rise Set
Actual Time 7:57 AM EST 5:30 PM EST
Civil Twilight 7:26 AM EST 6:00 PM EST
Nautical Twilight 6:52 AM EST 6:35 PM EST
Astronomical Twilight 6:18 AM EST 7:09 PM EST
Moon 11:57 AM EST 1:28 AM EST
Length of Visible Light 10h 34m
Length of Day
9h 32m
First Quarter, 57% of the Moon is Illuminated
Jan 19
First Quarter
Jan 26
Full
Feb 3
Last Quarter
Feb 10
New
Feb 17
First Quarter

Hourly Weather History & Observations

Time (EST) Temp. Windchill Dew Point Humidity Pressure Visibility Wind Dir Wind Speed Gust Speed Precip Events Conditions
12:14 AM 37.9 °F 29.2 °F 22.6 °F 54% 29.98 in 10.0 mi SSW 15.0 mph 25.3 mph N/A   Clear
12:35 AM 37.9 °F 29.6 °F 22.8 °F 55% 29.96 in 10.0 mi SW 13.8 mph 25.3 mph N/A   Clear
12:55 AM 38.3 °F 28.4 °F 23.0 °F 54% 29.96 in 10.0 mi SW 19.6 mph 27.6 mph N/A   Clear
1:14 AM 38.3 °F 28.7 °F 23.0 °F 54% 29.95 in 10.0 mi SW 18.4 mph 24.2 mph N/A   Clear
1:35 AM 38.3 °F 28.7 °F 23.4 °F 55% 29.95 in 10.0 mi SW 18.4 mph 29.9 mph N/A   Clear
1:55 AM 38.3 °F 28.1 °F 23.7 °F 56% 29.95 in 10.0 mi SW 20.7 mph 26.5 mph N/A   Clear
2:14 AM 38.3 °F 29.3 °F 23.7 °F 56% 29.95 in 10.0 mi SW 16.1 mph 26.5 mph N/A   Clear
2:35 AM 38.7 °F 30.5 °F 23.7 °F 55% 29.95 in 10.0 mi SW 13.8 mph 25.3 mph N/A   Clear
2:54 AM 38.7 °F 30.1 °F 23.9 °F 55% 29.95 in 10.0 mi SW 15.0 mph 27.6 mph N/A   Clear
3:15 AM 38.7 °F 31.4 °F 23.9 °F 55% 29.95 in 10.0 mi SW 11.5 mph 23.0 mph N/A   Clear
3:35 AM 38.7 °F 30.5 °F 24.1 °F 56% 29.95 in 10.0 mi SW 13.8 mph 20.7 mph N/A   Clear
3:54 AM 38.8 °F 30.4 °F 24.3 °F 56% 29.94 in 10.0 mi SW 15.0 mph 21.9 mph N/A   Clear
4:15 AM 38.8 °F 30.8 °F 24.4 °F 56% 29.94 in 10.0 mi SW 13.8 mph 21.9 mph N/A   Clear
4:35 AM 38.8 °F 31.6 °F 24.6 °F 57% 29.93 in 10.0 mi SW 11.5 mph 19.6 mph N/A   Clear
4:54 AM 38.8 °F 30.4 °F 24.8 °F 57% 29.93 in 10.0 mi SW 15.0 mph 20.7 mph N/A   Clear
5:14 AM 38.7 °F 30.9 °F 24.8 °F 58% 29.93 in 10.0 mi SW 12.7 mph 19.6 mph N/A   Clear
5:35 AM 38.7 °F 31.8 °F 25.2 °F 58% 29.93 in 10.0 mi SW 10.4 mph 19.6 mph N/A   Clear
5:54 AM 38.5 °F 30.7 °F 25.3 °F 59% 29.93 in 10.0 mi SW 12.7 mph 17.3 mph N/A   Clear
6:15 AM 38.5 °F 31.6 °F 25.3 °F 59% 29.93 in 10.0 mi SW 10.4 mph 17.3 mph N/A   Clear
6:35 AM 38.3 °F 30.5 °F 25.5 °F 60% 29.93 in 10.0 mi SW 12.7 mph 17.3 mph N/A   Clear
6:54 AM 38.7 °F 30.9 °F 25.7 °F 60% 29.93 in 10.0 mi SW 12.7 mph 18.4 mph N/A   Clear
7:15 AM 38.7 °F 31.8 °F 25.7 °F 60% 29.93 in 10.0 mi SW 10.4 mph 16.1 mph N/A   Clear
7:35 AM 38.5 °F 32.1 °F 26.1 °F 61% 29.94 in 10.0 mi SW 9.2 mph 16.1 mph N/A   Clear
7:54 AM 38.7 °F 30.9 °F 26.2 °F 61% 29.94 in 10.0 mi SW 12.7 mph - N/A   Clear
8:15 AM 38.8 °F 31.6 °F 26.4 °F 61% 29.94 in 10.0 mi SW 11.5 mph 18.4 mph N/A   Clear
8:34 AM 38.8 °F 32.1 °F 26.6 °F 61% 29.94 in 10.0 mi SW 10.4 mph 17.3 mph N/A   Clear
8:55 AM 39.2 °F 32.0 °F 26.6 °F 61% 29.94 in 10.0 mi SW 11.5 mph - N/A   Clear
9:14 AM 39.4 °F 32.7 °F 27.0 °F 61% 29.94 in 10.0 mi SW 10.4 mph - N/A   Scattered Clouds
9:35 AM 40.1 °F 33.6 °F 27.3 °F 60% 29.95 in 10.0 mi SW 10.4 mph 16.1 mph N/A   Scattered Clouds
9:55 AM 41.0 °F 35.2 °F 27.5 °F 59% 29.95 in 10.0 mi SW 9.2 mph - N/A   Mostly Cloudy
10:14 AM 41.9 °F 36.3 °F 27.7 °F 57% 29.95 in 10.0 mi SW 9.2 mph - N/A   Scattered Clouds
10:35 AM 42.6 °F 36.3 °F 27.9 °F 56% 29.95 in 10.0 mi SSW 11.5 mph 16.1 mph N/A   Scattered Clouds
10:55 AM 43.3 °F 36.8 °F 28.0 °F 55% 29.94 in 10.0 mi SW 12.7 mph 17.3 mph N/A   Clear
11:14 AM 44.2 °F 38.0 °F 28.2 °F 53% 29.93 in 10.0 mi SW 12.7 mph 19.6 mph N/A   Scattered Clouds
11:35 AM 45.7 °F 39.5 °F 28.4 °F 51% 29.92 in 10.0 mi SW 13.8 mph 19.6 mph N/A   Clear
11:54 AM 45.5 °F 40.3 °F 28.4 °F 51% 29.90 in 10.0 mi SW 10.4 mph 20.7 mph N/A   Scattered Clouds
12:15 PM 45.5 °F 38.6 °F 28.4 °F 51% 29.89 in 10.0 mi SW 16.1 mph 20.7 mph N/A   Mostly Cloudy
12:34 PM 45.7 °F 40.2 °F 28.8 °F 52% 29.87 in 10.0 mi SW 11.5 mph - N/A   Mostly Cloudy
12:55 PM 45.9 °F 40.4 °F 28.9 °F 52% 29.85 in 10.0 mi SSW 11.5 mph - N/A   Clear
1:15 PM 46.6 °F - 29.3 °F 51% 29.84 in 10.0 mi SSW 11.5 mph 17.3 mph N/A   Clear
1:34 PM 46.9 °F - 29.3 °F 50% 29.82 in 10.0 mi SW 10.4 mph 18.4 mph N/A   Clear
1:55 PM 48.2 °F - 29.5 °F 48% 29.81 in 10.0 mi SW 12.7 mph 20.7 mph N/A   Clear
2:14 PM 48.4 °F - 29.3 °F 48% 29.80 in 10.0 mi SW 15.0 mph 25.3 mph N/A   Clear
2:34 PM 48.2 °F - 29.5 °F 48% 29.80 in 10.0 mi SSW 16.1 mph 23.0 mph N/A   Clear
2:55 PM 48.7 °F - 29.7 °F 48% 29.79 in 10.0 mi SW 19.6 mph 28.8 mph N/A   Clear
3:14 PM 49.1 °F - 29.8 °F 47% 29.77 in 10.0 mi SSW 15.0 mph 25.3 mph N/A   Clear
3:35 PM 49.1 °F - 30.0 °F 48% 29.76 in 10.0 mi SW 20.7 mph 29.9 mph N/A   Clear
3:55 PM 49.1 °F - 30.2 °F 48% 29.75 in 10.0 mi SSW 17.3 mph 28.8 mph N/A   Clear
4:14 PM 49.1 °F - 30.6 °F 49% 29.74 in 10.0 mi SW 16.1 mph 27.6 mph N/A   Scattered Clouds
4:35 PM 49.1 °F - 30.9 °F 50% 29.74 in 10.0 mi SW 21.9 mph 33.4 mph N/A   Scattered Clouds
4:55 PM 49.1 °F - 30.9 °F 50% 29.75 in 10.0 mi SW 17.3 mph 24.2 mph N/A   Overcast
5:14 PM 49.1 °F - 31.3 °F 50% 29.75 in 10.0 mi SW 17.3 mph 29.9 mph N/A   Overcast
5:35 PM 48.7 °F - 31.6 °F 52% 29.75 in 10.0 mi SW 18.4 mph 21.9 mph N/A   Overcast
5:55 PM 48.7 °F - 31.6 °F 52% 29.72 in 10.0 mi SSW 16.1 mph 25.3 mph N/A   Overcast
6:14 PM 48.7 °F - 31.5 °F 51% 29.72 in 10.0 mi SW 17.3 mph 23.0 mph N/A   Overcast
6:35 PM 48.6 °F - 31.5 °F 52% 29.70 in 10.0 mi SW 18.4 mph 29.9 mph N/A   Mostly Cloudy
6:54 PM 48.2 °F - 31.6 °F 53% 29.68 in 10.0 mi SSW 13.8 mph 26.5 mph N/A   Scattered Clouds
7:14 PM 48.4 °F - 32.0 °F 53% 29.71 in 10.0 mi SW 15.0 mph 26.5 mph N/A   Scattered Clouds
7:35 PM 48.4 °F - 32.0 °F 53% 29.70 in 10.0 mi SW 18.4 mph 27.6 mph N/A   Scattered Clouds
7:54 PM 48.2 °F - 32.0 °F 54% 29.69 in 10.0 mi SW 21.9 mph 32.2 mph N/A   Clear
8:15 PM 47.7 °F - 32.0 °F 55% 29.67 in 10.0 mi SW 21.9 mph 27.6 mph N/A   Clear
8:34 PM 47.3 °F - 32.0 °F 55% 29.66 in 10.0 mi SW 15.0 mph 27.6 mph N/A   Clear
8:54 PM 47.1 °F - 32.2 °F 56% 29.65 in 10.0 mi SW 15.0 mph 24.2 mph N/A   Clear
9:15 PM 46.6 °F - 32.2 °F 57% 29.65 in 10.0 mi SW 13.8 mph 24.2 mph N/A   Clear
9:34 PM 46.4 °F 40.7 °F 32.4 °F 58% 29.63 in 10.0 mi SW 12.7 mph 23.0 mph N/A   Clear
9:54 PM 46.4 °F 40.1 °F 32.5 °F 59% 29.62 in 10.0 mi SW 15.0 mph 24.2 mph N/A   Clear
10:15 PM 46.2 °F 40.1 °F 32.9 °F 60% 29.61 in 10.0 mi SW 13.8 mph 24.2 mph N/A   Scattered Clouds
10:34 PM 46.0 °F 39.3 °F 32.9 °F 60% 29.61 in 10.0 mi SW 16.1 mph 23.0 mph N/A   Mostly Cloudy
10:55 PM 45.7 °F 40.2 °F 33.1 °F 61% 29.60 in 10.0 mi WSW 11.5 mph 21.9 mph N/A   Scattered Clouds
11:15 PM 45.7 °F 40.2 °F 33.4 °F 62% 29.59 in 10.0 mi WSW 11.5 mph 19.6 mph N/A   Mostly Cloudy
11:34 PM 45.9 °F 40.0 °F 33.8 °F 63% 29.58 in 10.0 mi SW 12.7 mph 18.4 mph N/A   Mostly Cloudy
11:55 PM 46.8 °F - 33.8 °F 61% 29.57 in 10.0 mi WSW 15.0 mph 26.5 mph N/A   Mostly Cloudy